Location: Hawks Ness
(60.2333°N, 1.1667°W)
Time: 00:31:17
(UTC+00:00)

Cosmos 1697 Rocket - Pass Details

Date: 22 October 2019
Orbit: 833 x 843 km, 71.0° (Epoch: 17 November)

Event Time Altitude Azimuth Distance (km) Brightness Sun altitude
Exits shadow 02:11:19 38° 5° (N) 1,273 3.8 -34.1°
Drops below altitude 10° 02:15:21 10° 40° (NE) 2,474 5.9 -33.8°
Sets 02:17:55 0° 47° (NE) 3,410 6.9 -33.6°
